Wind_Speed
35 37 40 44 49 49 47 46 46 44 38 33 31 28 26 26 29 29 27 25 24 24 26 26 26 27 28 32 33 30 29 30 32 35 38 39 37 35 34 32 31 30 30 28 26 25 24 23 24 26 25 24 24 25 25 26 25 24 23 23 23 22 23 25 26 27 28 28 29 29 29 28 27 27 27 27 27 26 25 24 24 24 24 25 26 28
36 40 43 44 47 47 45 43 42 42 40 36 34 32 27 25 27 25 23 24 26 28 28 24 23 24 24 27 31 29 26 28 29 32 37 39 37 36 36 34 32 31 31 29 26 24 23 22 22 24 25 25 26 26 26 27 26 25 24 24 25 24 24 25 26 26 27 27 28 29 29 29 29 29 28 28 28 28 27 25 25 25 25 26 27 27
34 38 43 43 45 44 41 41 41 42 41 37 36 33 23 22 25 22 21 23 24 26 27 25 25 26 24 24 27 26 27 31 33 34 37 37 36 37 37 36 35 33 33 31 29 26 23 22 22 23 24 25 25 27 28 28 28 27 27 27 27 27 26 26 26 27 27 27 27 28 29 29 30 30 30 29 30 30 29 27 26 26 26 27 28 28
36 35 38 40 44 44 39 39 39 39 38 37 36 33 25 21 21 19 19 21 22 21 23 24 26 30 29 28 33 32 31 34 35 36 36 35 35 35 34 34 34 34 34 33 32 29 27 25 24 24 24 24 24 26 28 29 30 30 29 30 30 29 28 27 27 27 26 27 28 28 28 29 30 30 30 31 31 30 29 28 28 27 27 27 28 28
41 36 34 35 38 44 43 37 35 37 36 35 36 35 29 23 21 20 17 16 17 18 22 22 24 33 35 34 40 41 39 40 40 40 40 39 38 37 36 36 36 35 34 34 34 32 31 30 29 28 27 26 26 26 27 29 31 31 31 31 31 30 30 29 28 27 26 27 27 28 27 28 28 29 29 30 29 29 29 29 29 29 29 29 30 30
41 38 35 33 28 33 43 40 34 34 35 34 33 33 31 27 22 18 13 12 13 13 16 15 15 22 27 24 25 26 28 31 30 31 34 36 36 37 38 38 36 36 35 34 35 34 33 32 31 31 31 31 29 28 28 29 30 32 32 32 31 30 30 29 29 28 28 27 27 27 26 26 26 26 27 27 26 28 29 30 31 32 32 32 32 32
41 37 34 32 21 16 29 42 38 31 30 29 29 30 29 27 22 18 14 11 10 9 7 8 11 16 20 19 15 12 16 17 14 15 21 26 31 34 36 36 34 32 31 32 33 33 32 31 29 30 31 32 31 30 30 30 30 31 32 33 31 30 30 30 30 30 29 28 28 28 27 26 25 25 25 25 25 26 28 30 32 33 34 34 34 34
43 41 38 36 29 17 18 31 38 35 29 24 24 26 26 27 23 20 18 13 11 11 8 9 13 19 28 32 28 25 27 28 26 24 25 29 34 37 37 37 35 32 30 29 31 32 31 29 27 28 29 30 31 32 33 32 31 32 33 33 32 31 31 31 31 31 31 30 29 29 29 27 27 26 26 27 27 27 28 29 30 32 34 35 35 35
47 47 46 43 40 35 24 22 26 31 28 20 17 19 21 24 25 23 20 18 15 13 12 16 17 16 29 37 30 28 32 36 40 38 37 36 36 38 38 36 32 28 26 26 26 29 30 28 26 26 27 28 31 33 33 33 33 33 33 33 33 33 32 32 32 33 32 31 31 31 31 29 29 29 30 31 31 30 29 29 29 30 32 34 36 36
42 43 42 38 37 41 38 29 25 25 25 20 16 15 16 17 19 18 18 20 19 15 16 25 22 14 25 37 26 20 23 25 28 28 27 27 27 30 29 24 21 18 18 19 22 25 25 25 24 24 26 28 30 33 34 34 34 34 34 33 34 33 32 32 33 34 34 33 33 32 32 32 32 33 35 36 35 33 32 30 30 30 30 32 34 36
39 37 31 28 31 35 35 35 35 31 27 25 21 16 16 17 19 17 16 18 13 11 23 33 31 18 18 29 21 16 21 18 17 21 23 22 20 20 19 17 17 16 16 18 21 22 22 24 24 23 24 26 29 31 32 34 34 34 34 33 33 32 32 32 32 34 35 34 34 33 33 34 34 35 36 36 35 34 33 32 30 30 29 30 31 33
36 33 29 29 30 30 28 28 31 30 30 33 33 30 22 15 17 16 15 16 6 9 26 33 33 26 19 24 17 9 14 14 16 21 21 17 14 14 19 24 24 21 19 20 20 20 22 23 24 23 23 24 25 28 29 31 32 31 31 31 31 31 30 31 32 33 34 35 35 34 35 35 35 35 35 35 34 34 34 33 31 31 30 30 29 31
34 33 32 31 30 30 30 27 25 26 28 30 33 35 21 5 7 8 6 7 5 12 23 23 22 23 26 38 34 24 25 23 23 23 17 17 20 23 26 27 27 26 22 19 17 19 20 19 20 20 21 21 22 24 26 27 28 28 29 30 30 29 30 31 31 32 33 34 34 34 35 35 34 34 34 34 34 34 34 34 33 34 33 33 32 31
27 27 29 30 28 29 31 31 30 30 33 35 36 36 23 7 1 3 3 2 3 12 20 18 15 14 19 30 29 26 29 26 27 28 24 26 27 22 16 14 18 20 17 14 16 18 17 15 16 17 17 19 19 21 22 22 24 27 29 31 31 30 30 31 30 30 31 31 32 33 34 34 35 36 36 36 35 35 35 35 35 36 37 37 37 36
23 18 27 33 31 31 33 33 32 33 34 36 39 37 30 22 11 3 3 1 1 5 11 12 9 6 10 14 10 9 12 12 19 22 21 22 13 7 8 11 13 14 13 14 15 16 16 16 15 14 15 17 17 17 18 19 22 25 28 31 32 30 30 29 28 28 28 27 28 29 30 31 33 35 36 36 36 36 36 36 38 39 39 39 39 39
29 22 28 34 33 35 34 32 32 31 28 29 34 34 31 34 26 10 5 6 2 3 5 9 10 8 11 19 22 19 14 10 14 17 18 17 11 13 22 23 20 18 15 14 12 13 17 18 15 12 12 14 15 15 17 19 20 22 25 29 30 30 29 28 28 28 27 26 26 26 27 28 29 31 32 33 34 34 35 36 38 39 40 41 41 41
30 23 29 33 32 35 33 31 35 32 26 26 31 35 33 34 31 18 10 13 9 5 12 18 20 24 27 30 26 19 16 16 18 20 21 21 21 25 27 22 18 17 14 11 10 12 16 17 15 13 12 13 14 15 16 18 19 20 23 26 28 29 30 30 30 30 29 29 28 28 28 29 30 30 31 32 34 35 37 38 39 39 40 40 41 42
29 20 26 33 32 34 30 26 30 33 31 28 28 34 31 23 26 23 10 6 7 5 13 22 25 25 23 22 14 5 11 13 14 15 15 15 16 16 13 11 12 13 13 10 10 13 17 18 17 16 15 14 14 15 15 16 18 20 22 24 26 28 30 31 31 31 31 31 31 30 30 29 30 30 31 31 32 33 35 37 38 39 39 40 41 42
30 17 17 27 30 31 29 25 26 31 34 32 26 29 27 15 16 25 14 4 7 5 5 13 20 21 23 28 30 23 14 9 8 10 13 15 17 17 12 9 9 11 13 12 11 14 17 20 21 20 18 15 15 15 15 15 16 18 20 22 24 26 28 30 31 32 32 32 32 32 31 31 30 29 29 29 30 31 32 32 33 35 37 37 39 40
34 22 15 21 26 27 30 32 34 33 33 31 25 24 29 21 15 24 25 12 8 6 4 8 9 14 27 38 40 37 34 24 16 17 19 19 20 18 12 8 10 14 16 16 15 16 18 21 23 22 18 15 15 16 16 15 15 17 18 19 21 23 26 28 30 31 32 32 33 33 33 33 32 31 29 29 29 30 30 29 29 30 31 32 34 36
35 28 19 19 24 28 33 37 40 40 38 35 30 27 31 30 19 18 25 23 13 4 3 5 5 11 26 32 29 30 30 24 17 17 17 16 16 17 14 13 15 18 20 21 21 22 21 21 23 23 18 16 16 17 18 17 17 18 18 19 20 21 23 25 27 30 31 32 32 33 33 34 34 33 32 31 30 30 30 29 29 29 29 31 32 32
36 30 25 25 29 34 37 38 37 38 37 35 36 36 36 37 29 13 11 23 24 14 8 5 5 16 28 26 24 25 21 13 10 11 12 13 17 20 21 20 20 21 25 26 25 24 22 21 22 22 20 18 18 18 19 19 19 18 19 21 22 22 23 24 25 27 30 31 32 32 33 34 34 34 34 33 33 32 31 31 30 31 31 32 32 32
41 32 26 29 34 34 32 33 32 30 32 33 34 37 36 35 35 21 8 16 25 22 18 9 4 21 35 29 26 28 24 21 19 17 17 17 20 24 24 23 24 26 28 27 26 26 25 24 24 23 23 23 22 21 20 20 20 19 20 21 23 25 25 26 26 27 28 30 32 32 33 33 34 34 35 34 34 33 32 32 32 32 33 33 33 33
38 30 27 26 27 28 26 30 33 28 28 32 34 37 37 34 37 31 15 11 18 21 20 9 5 23 34 26 25 29 28 26 22 22 24 23 24 27 25 25 26 27 28 28 29 29 28 27 26 25 26 26 26 26 24 23 22 22 22 23 24 26 27 29 29 29 29 30 31 32 32 33 33 34 35 35 34 34 32 31 31 31 32 32 33 33
34 30 31 22 12 15 17 18 26 30 31 36 38 39 37 33 33 31 21 13 11 18 23 12 8 23 27 16 16 20 18 17 18 21 24 21 21 24 24 26 27 28 30 30 31 30 29 28 28 28 29 29 28 29 28 28 27 26 26 26 27 28 28 30 31 32 33 33 33 32 32 32 33 34 35 35 35 34 32 32 31 31 31 31 32 32
34 30 35 27 11 10 12 14 27 38 40 37 35 34 35 32 30 31 30 22 13 18 25 19 16 27 29 20 20 18 11 12 16 20 23 20 20 23 26 28 29 30 32 32 31 31 30 30 31 33 33 32 32 32 32 33 32 31 31 31 31 31 31 31 31 32 33 35 36 36 35 34 33 34 35 35 35 34 33 32 31 31 30 30 30 30
35 30 35 35 25 20 21 25 31 38 40 36 34 34 36 36 34 32 29 28 26 25 26 25 26 31 32 29 29 27 21 18 20 23 26 28 30 30 31 32 31 32 34 35 36 37 36 36 37 37 37 36 36 37 37 37 37 36 35 35 35 35 34 33 33 33 34 34 36 37 38 37 35 34 36 36 36 35 33 32 31 30 29 29 29 29
39 33 32 33 29 24 23 24 26 29 35 38 38 38 37 36 36 36 33 34 33 25 22 29 32 32 35 33 29 31 32 30 30 31 33 36 37 36 36 35 35 35 37 39 40 42 42 42 41 41 41 41 40 41 42 42 41 40 39 39 39 38 38 38 36 35 35 35 35 36 38 39 38 37 36 37 37 35 33 32 31 30 30 30 30 29
40 36 33 33 30 23 17 17 20 22 26 31 33 35 35 35 37 39 38 38 35 27 27 33 32 32 37 35 30 31 33 32 33 35 35 35 37 39 40 40 39 39 40 41 42 43 44 46 46 46 45 45 44 44 45 45 45 44 44 44 43 42 41 41 40 39 38 37 37 36 37 38 39 39 38 38 38 37 35 34 32 32 32 32 32 31
39 36 34 32 32 27 16 11 16 18 18 22 25 26 29 32 35 37 38 38 38 36 38 37 33 35 39 36 32 31 30 31 33 33 33 35 39 42 43 43 43 42 43 43 44 45 46 48 49 49 48 48 48 48 48 48 48 48 47 47 48 47 45 43 43 43 42 41 39 38 38 38 39 40 40 40 39 40 39 37 35 35 34 34 34 33
38 34 34 33 30 29 24 16 15 17 19 21 21 20 22 23 25 29 33 36 39 41 42 40 39 40 39 34 31 29 29 33 35 34 36 39 42 43 44 44 44 45 45 45 46 48 48 48 48 48 48 48 49 50 51 51 51 51 50 50 50 51 49 47 45 44 44 44 42 40 39 39 40 41 42 41 41 41 42 42 39 38 37 36 35 35
30 21 23 27 23 22 26 23 18 17 17 19 22 21 22 21 22 27 32 34 36 38 37 37 39 40 37 34 32 31 34 38 40 40 41 41 42 44 45 45 46 46 46 46 48 48 47 46 46 47 47 48 50 51 51 52 52 52 52 51 51 52 52 51 48 46 45 44 44 42 40 40 41 42 42 42 42 42 44 45 45 42 40 39 38 38
28 19 18 22 19 20 24 24 24 21 14 16 25 28 29 32 33 35 37 37 37 36 34 36 40 41 38 34 34 36 39 41 42 43 43 43 44 46 45 46 46 46 45 46 47 46 43 44 45 46 47 48 50 50 51 52 53 53 53 53 52 52 52 52 50 48 46 45 44 43 42 41 41 42 42 42 43 43 44 46 47 47 45 43 42 41
33 28 25 23 20 20 22 21 19 15 11 20 32 36 37 40 41 41 41 41 41 41 41 41 42 40 36 35 37 41 43 42 41 42 42 42 42 42 41 42 43 43 42 42 43 42 42 43 45 46 47 48 49 50 51 52 53 53 54 54 53 51 50 50 50 48 46 46 44 44 44 43 43 43 42 42 42 43 44 45 46 48 48 48 47 46
35 30 27 25 21 17 17 17 11 8 19 32 36 36 36 38 39 39 40 41 41 41 41 40 40 39 39 40 41 43 43 41 39 39 39 37 37 37 38 39 40 41 40 40 40 41 42 44 45 47 47 48 48 48 49 50 51 51 52 53 53 51 48 47 47 47 46 45 44 44 44 44 45 45 45 44 42 42 43 43 45 47 49 51 51 51
35 31 27 24 20 14 13 17 11 7 19 30 32 34 38 38 35 34 35 39 41 40 39 40 41 42 42 41 40 40 39 38 37 37 37 37 38 37 37 37 39 39 39 39 39 40 40 42 43 45 46 45 45 45 46 47 48 48 49 49 49 49 47 44 44 44 43 42 42 42 42 44 45 47 48 48 46 44 43 42 43 45 48 51 53 54
32 32 29 24 21 18 14 16 15 10 15 29 38 40 41 39 36 33 34 38 38 36 37 39 40 40 39 37 37 35 34 34 36 36 36 38 39 39 37 37 38 39 39 38 38 38 38 39 40 41 42 42 42 42 43 44 45 46 46 46 45 45 44 43 40 39 40 39 38 39 41 42 44 46 48 50 50 48 46 45 44 44 45 47 50 53
31 30 29 24 22 22 17 12 8 6 17 36 41 39 37 33 31 30 30 33 35 35 37 38 36 36 35 33 32 30 28 30 32 33 34 36 37 38 38 37 37 38 39 38 38 38 37 36 36 36 37 38 39 40 41 42 44 45 45 44 43 41 40 39 36 34 34 35 35 36 38 41 43 46 47 49 49 49 48 46 46 45 44 44 45 47
31 28 27 25 21 21 21 13 6 10 27 35 32 32 29 22 22 21 19 29 39 37 33 31 30 29 28 27 27 25 24 28 30 30 32 34 35 37 38 37 36 36 37 38 39 39 38 37 36 35 36 37 38 40 41 41 42 43 42 40 38 38 37 35 32 31 30 32 33 35 37 40 42 45 46 46 47 47 46 45 45 45 44 44 43 42
29 26 25 26 23 21 21 17 13 23 34 30 25 28 20 11 14 11 9 24 34 28 24 25 24 25 27 27 26 24 24 28 29 29 31 34 35 37 39 39 38 38 39 40 41 41 40 38 36 35 34 34 35 37 38 39 40 40 38 35 33 34 34 32 31 30 30 30 31 33 35 38 40 42 44 45 45 45 45 45 44 44 44 43 42 41
29 28 26 27 27 22 20 18 17 29 38 32 29 29 15 7 11 15 17 30 32 26 29 28 23 25 26 23 23 23 23 26 28 30 33 35 36 38 39 40 41 42 42 42 42 42 41 37 35 33 31 29 29 31 33 35 36 37 36 34 33 34 34 33 32 31 30 30 31 32 33 35 36 38 40 41 43 43 44 44 44 44 44 44 43 41
30 28 26 28 28 24 24 20 15 29 41 37 34 31 20 14 19 26 33 37 32 29 31 26 21 23 23 23 25 26 27 30 32 34 35 35 37 38 38 40 41 43 44 41 39 38 38 35 33 32 30 29 28 28 29 30 32 34 35 36 36 35 34 34 33 32 31 31 31 32 32 33 34 36 37 38 39 40 40 41 42 43 44 44 43 42
33 28 27 32 31 23 19 15 11 22 31 24 20 24 26 23 26 30 31 29 25 26 24 21 22 24 23 25 27 27 28 30 30 31 32 32 34 35 36 38 39 41 43 40 36 34 33 33 32 30 29 28 29 29 30 31 31 33 35 36 37 37 36 35 34 33 32 31 31 31 32 32 32 33 34 35 36 37 38 39 40 41 42 42 42 42
34 33 32 36 33 26 23 23 25 31 29 20 13 16 19 19 19 19 20 21 23 25 24 25 26 25 24 25 25 24 26 26 25 27 27 28 29 30 32 35 37 39 42 41 36 33 31 32 33 31 30 29 30 31 32 33 34 35 36 36 37 37 36 35 34 32 30 29 29 29 30 29 29 29 30 31 33 34 36 37 37 38 39 40 41 41
33 35 33 33 32 30 31 34 37 38 35 29 22 16 16 20 21 21 24 26 28 30 31 30 28 26 27 26 25 25 25 24 24 25 25 26 27 28 30 32 34 37 41 40 37 33 30 29 30 31 31 31 33 35 35 35 37 38 38 38 36 36 35 33 32 29 27 27 28 28 28 28 27 27 27 28 29 31 32 34 35 35 36 36 37 38
32 32 31 32 33 32 35 38 39 38 38 36 32 28 28 30 31 31 32 33 35 36 34 31 30 29 28 27 27 27 27 27 28 29 29 31 31 30 31 33 34 36 38 37 35 31 29 28 27 26 27 28 30 33 33 32 33 33 34 34 32 32 33 31 30 28 26 27 28 28 27 28 27 26 25 25 26 27 29 30 32 33 33 33 34 35
32 29 29 31 32 32 35 38 38 38 38 37 37 38 38 38 37 36 35 34 33 31 30 30 30 29 28 28 29 30 31 32 33 33 32 32 31 31 32 32 33 35 35 35 34 31 29 28 27 26 25 25 25 26 26 26 26 27 28 28 28 28 28 28 29 28 26 27 28 28 28 28 28 27 26 25 25 25 25 27 28 29 30 30 31 32
31 28 29 32 33 34 37 39 37 36 35 35 35 35 36 36 35 33 31 28 26 25 26 27 27 28 29 30 31 33 33 32 32 32 31 30 30 31 31 31 32 33 33 33 32 31 30 30 29 28 27 26 26 26 26 26 26 26 27 28 28 28 27 28 29 29 28 28 29 29 30 30 30 30 29 28 27 25 25 25 25 26 26 27 27 28
29 29 31 32 33 35 38 39 38 37 35 34 33 33 34 34 32 28 26 25 24 24 25 26 27 29 30 31 32 32 31 29 28 28 28 28 28 28 27 28 31 32 32 32 31 31 32 33 33 32 31 30 29 29 29 28 28 28 29 29 30 31 31 30 30 31 32 32 32 33 34 34 34 34 34 33 32 30 28 27 26 26 25 24 25 26
29 31 31 30 32 36 38 36 36 36 36 35 35 34 32 30 28 26 26 25 25 25 26 27 29 30 31 32 33 32 32 32 31 30 29 29 29 28 28 29 30 31 32 33 33 34 35 36 36 36 35 34 33 33 33 33 32 31 32 32 33 34 34 34 33 34 35 37 38 39 39 40 40 40 39 39 38 36 35 33 31 30 29 27 26 25
33 33 31 31 33 35 35 32 30 31 31 31 31 30 28 27 26 26 27 27 27 27 28 30 32 33 34 35 35 35 35 34 34 33 33 33 34 34 34 34 33 34 35 36 37 38 39 39 40 40 40 39 39 38 38 38 37 37 37 37 37 37 38 38 39 39 39 41 43 44 44 45 45 45 44 44 43 43 42 40 38 36 35 33 32 30
Wind_Direction
237 234 227 223 224 226 225 224 228 230 229 228 229 231 231 231 234 236 236 239 242 244 249 252 252 253 258 263 263 262 257 255 258 261 263 266 266 267 269 271 274 276 277 278 278 279 280 280 282 285 286 285 283 283 284 282 280 280 280 280 281 285 285 283 283 281 278 276 275 275 275 276 276 274 273 273 274 275 277 278 279 278 275 271 267 265
233 232 233 229 226 230 230 226 227 230 229 230 232 233 233 232 232 234 235 236 237 239 244 249 253 254 259 263 262 261 260 255 252 254 259 264 267 269 272 273 274 277 278 278 277 277 276 276 277 280 283 285 285 285 282 280 279 279 280 282 285 286 286 285 284 282 279 278 277 277 276 274 272 271 270 270 270 270 270 272 275 276 276 275 272 269
225 226 231 231 228 230 231 228 226 229 230 231 234 233 232 233 231 230 232 234 234 237 242 246 249 251 252 255 257 258 260 259 256 256 259 262 265 268 272 276 278 280 280 279 278 278 276 274 275 276 278 281 283 282 281 280 278 278 279 282 284 285 286 285 283 282 281 281 280 278 277 276 274 272 270 269 267 267 268 271 272 274 276 277 276 275
223 226 226 226 228 227 227 228 227 227 228 229 233 232 228 230 231 226 227 236 242 242 243 248 254 255 254 254 256 256 255 259 262 263 263 264 265 267 270 274 278 280 279 279 280 279 279 277 276 275 274 275 276 276 278 278 277 278 279 280 281 282 283 283 282 283 284 283 281 280 280 278 276 275 273 271 270 270 271 272 272 273 275 275 275 275
229 232 227 221 223 225 224 225 225 228 227 226 232 234 228 223 223 222 224 231 242 249 247 254 266 266 263 264 266 265 264 265 268 269 268 268 269 270 271 272 275 276 277 279 281 281 280 280 279 278 276 273 272 272 273 274 275 277 277 279 280 280 281 281 281 282 283 282 282 282 282 280 279 279 278 277 277 276 274 272 271 271 270 269 269 270
229 232 227 215 212 219 222 222 221 223 225 226 231 234 229 225 224 224 232 240 241 253 258 261 275 273 269 270 274 277 276 276 278 276 273 272 270 270 270 271 274 275 276 277 279 280 280 280 279 279 278 276 274 272 271 271 272 274 275 276 277 276 277 279 279 278 278 279 281 282 282 283 283 282 282 283 283 279 274 271 270 268 267 267 267 267
224 222 222 214 202 201 212 218 220 216 216 222 226 232 229 225 228 224 226 245 243 245 272 267 260 271 274 265 260 270 273 273 273 275 280 280 277 274 272 273 277 278 278 278 278 277 276 276 276 276 276 276 275 273 271 270 270 271 273 275 276 276 275 275 275 274 275 277 279 280 281 282 282 283 285 287 286 281 276 273 270 269 267 267 267 268
224 219 222 225 222 216 197 206 218 219 214 215 218 226 224 220 227 229 229 249 260 257 264 251 253 272 276 268 263 264 265 264 260 259 269 276 278 279 279 281 285 286 285 282 280 278 277 276 275 273 272 272 271 271 271 271 271 271 273 276 278 279 277 274 273 273 274 276 277 278 277 278 279 282 286 287 287 284 280 277 275 272 269 267 267 268
230 227 231 236 235 235 222 196 205 213 208 204 204 210 213 216 228 238 243 252 263 270 259 243 247 268 273 273 276 276 271 271 272 270 270 271 273 275 279 286 291 293 289 284 281 279 279 279 275 270 268 267 267 268 269 270 271 272 273 276 278 280 280 276 273 272 273 274 275 276 276 277 279 281 285 286 286 284 280 278 277 275 272 270 268 268
234 236 240 243 240 241 240 232 227 219 206 201 199 198 203 212 224 233 238 246 256 265 255 247 242 246 271 273 274 273 271 277 282 282 278 272 272 276 282 291 296 294 289 282 277 276 278 278 272 264 260 260 263 265 267 268 269 271 273 276 279 281 280 277 272 270 271 272 273 275 277 278 280 281 283 284 283 281 278 276 275 275 274 273 270 268
234 241 240 238 240 244 247 247 247 245 238 236 237 236 233 228 230 229 229 241 254 257 250 250 242 230 269 277 267 258 262 276 289 287 287 284 280 278 282 292 292 287 281 276 275 276 274 270 266 260 257 258 261 263 265 267 268 270 272 275 278 279 279 276 273 269 268 269 270 273 276 276 278 279 280 280 280 278 276 274 274 274 272 272 271 269
229 236 234 232 237 239 239 239 241 245 245 247 250 254 255 249 245 241 236 236 237 254 251 253 246 232 244 265 264 257 259 269 282 284 288 283 262 264 285 295 292 284 277 273 274 273 268 265 262 261 262 264 265 264 265 266 267 269 270 272 274 276 276 275 273 271 269 269 270 271 272 272 272 273 274 275 276 276 275 274 273 271 270 271 272 272
224 231 233 234 235 233 230 222 222 230 232 233 239 241 242 260 261 242 230 230 218 250 254 253 248 232 239 257 262 265 266 267 272 274 267 256 262 278 288 286 277 271 269 268 269 266 265 265 262 261 263 265 267 268 267 266 267 267 267 268 269 271 272 273 273 273 271 269 269 269 269 269 269 270 271 273 273 274 275 275 273 271 270 271 273 275
212 227 227 223 222 222 223 214 209 218 222 223 227 225 217 196 260 228 211 252 234 252 256 252 244 222 233 259 268 272 272 269 265 263 261 270 281 285 279 267 263 267 266 264 266 265 263 261 257 255 258 263 267 271 271 268 264 262 260 261 262 264 268 270 272 272 271 269 268 267 266 266 267 268 269 270 271 273 274 274 273 271 271 272 274 276
196 210 215 216 219 218 220 220 223 228 227 227 227 222 215 211 215 216 212 195 87 275 264 243 231 194 201 235 259 286 297 291 276 271 275 283 275 232 262 282 275 274 269 264 264 261 257 252 244 242 251 258 263 268 269 267 261 258 257 258 259 261 265 268 269 269 268 268 267 266 266 266 266 267 267 269 270 272 274 274 273 271 271 271 273 274
206 212 216 221 227 227 224 220 222 226 224 224 221 215 217 222 222 223 242 240 229 331 282 231 232 243 245 255 264 272 283 290 284 278 276 273 244 246 279 283 275 275 268 257 256 251 244 238 232 235 249 255 257 261 263 263 261 258 256 256 257 258 260 262 263 265 266 267 268 268 268 269 269 269 270 271 272 273 273 272 271 271 271 271 272 273
207 217 224 222 222 229 231 221 216 217 218 216 210 208 217 224 220 215 234 242 237 274 263 249 253 261 269 278 279 283 292 286 278 275 272 270 266 272 280 279 278 271 245 234 250 247 235 230 231 242 255 258 256 257 260 262 262 259 255 254 254 255 256 258 260 262 265 268 269 270 270 269 269 269 270 270 270 271 271 270 270 271 271 272 272 273
204 206 221 221 219 222 223 218 218 221 221 213 205 209 214 217 216 212 210 218 206 241 255 246 251 253 257 268 270 319 355 332 305 296 296 293 288 287 285 284 281 251 226 243 263 246 237 236 241 252 258 259 258 258 260 264 266 264 262 259 256 255 255 257 259 261 264 266 267 268 268 268 269 270 271 271 271 272 272 272 272 271 271 272 273 273
204 191 205 219 224 223 214 207 210 214 218 217 214 217 212 198 203 205 199 194 200 211 246 236 241 239 234 244 253 264 290 316 324 317 316 312 306 306 303 291 276 249 246 267 265 249 248 246 247 254 257 258 261 262 263 268 272 272 271 269 265 262 260 260 260 261 262 264 265 266 266 267 268 270 272 274 275 275 275 275 274 271 271 272 273 273
206 195 191 204 212 211 203 201 202 201 207 212 215 216 211 207 204 200 202 206 202 205 228 224 223 230 242 252 258 263 267 269 277 286 290 293 292 290 282 265 271 276 277 276 271 268 265 256 253 252 253 260 265 266 268 272 275 275 274 272 269 268 265 263 262 262 263 265 266 267 268 268 268 269 270 272 274 275 276 276 275 273 273 273 272 273
203 199 194 190 195 199 197 202 208 207 202 200 200 200 203 207 206 204 209 209 204 198 216 227 227 236 251 261 263 265 268 273 282 284 280 280 274 262 250 246 261 277 282 281 282 284 280 270 260 253 255 268 270 270 272 274 277 277 275 272 270 268 268 266 265 264 264 265 266 268 268 268 268 268 268 269 270 272 275 276 275 274 273 272 272 272
198 195 191 182 187 199 205 209 214 212 207 204 204 202 204 204 198 192 208 208 209 215 205 207 261 251 251 258 261 263 261 255 267 272 256 249 252 253 253 255 263 274 282 285 286 286 282 274 264 256 260 274 275 274 278 279 280 278 276 274 272 270 269 269 268 267 265 265 265 266 266 267 267 267 267 267 268 269 271 273 273 271 270 269 270 271
205 200 190 185 191 200 207 209 207 207 212 214 210 207 208 206 200 196 197 202 206 216 224 226 269 258 255 254 256 260 255 246 251 257 251 245 249 255 257 260 271 279 283 286 284 280 277 274 269 266 269 278 280 279 281 285 284 282 280 277 273 271 271 271 270 270 269 268 266 265 265 266 267 267 267 267 267 267 268 269 269 269 268 269 269 269
202 197 187 184 191 195 199 205 203 200 206 210 211 211 210 211 210 209 207 203 199 203 217 222 240 257 261 261 257 261 262 258 256 254 256 256 254 259 264 270 280 286 285 284 280 278 277 276 276 278 279 282 284 282 281 282 282 282 283 283 278 273 271 270 270 271 272 272 271 270 268 267 267 267 267 266 265 265 264 264 264 265 266 267 268 269
196 191 184 176 173 184 189 198 197 194 199 207 212 213 212 213 215 213 213 219 209 204 211 208 220 252 264 265 253 256 256 250 244 242 249 255 258 266 279 286 290 289 285 283 280 278 278 277 282 289 288 285 284 284 282 280 279 278 281 285 285 281 276 273 272 271 273 274 275 275 274 271 269 267 266 265 263 262 260 260 260 261 263 265 266 267
192 186 185 181 171 174 176 183 193 196 200 205 209 211 212 212 212 214 216 219 222 217 216 212 223 246 257 255 249 250 235 214 219 228 236 247 261 271 280 286 287 285 284 284 284 285 285 284 289 293 292 288 285 285 285 283 283 281 281 285 289 289 286 282 278 276 276 276 277 277 278 276 272 269 267 265 263 260 258 257 257 257 258 260 262 264
193 193 193 191 192 196 194 193 197 199 198 201 208 212 213 214 213 214 213 215 223 225 222 223 229 242 253 255 253 254 250 236 232 237 247 259 269 272 272 275 278 280 284 287 290 293 293 292 292 292 291 289 288 290 291 290 287 285 284 285 288 289 288 287 285 282 280 280 280 279 279 278 277 273 269 265 262 259 257 254 254 254 255 257 259 262
201 204 204 200 201 209 212 208 206 206 205 207 212 214 215 216 215 213 215 221 226 224 228 235 234 239 250 255 255 257 260 258 253 255 263 269 274 277 278 279 278 279 283 287 292 296 296 293 291 290 289 290 291 294 295 294 290 287 285 285 286 287 287 287 285 283 282 282 283 283 280 278 277 276 272 267 262 258 254 251 252 254 257 259 261 264
207 208 208 206 202 202 211 215 211 212 214 214 218 220 221 220 217 216 221 228 228 222 231 238 235 237 248 254 257 260 263 264 261 263 268 271 274 280 284 286 285 285 287 291 296 299 297 294 292 292 291 292 293 293 293 292 291 289 287 286 286 287 287 286 284 283 283 282 281 283 283 280 277 276 274 270 265 259 253 251 253 255 258 261 264 266
210 211 207 204 202 199 195 186 191 200 204 208 217 225 226 226 226 224 227 232 233 232 237 241 239 241 249 256 260 261 262 264 265 268 269 271 276 281 285 288 291 293 294 297 299 297 295 294 294 295 295 295 293 291 289 288 289 290 290 288 288 288 288 287 285 283 283 282 280 280 281 281 279 276 275 273 268 262 256 253 254 255 258 261 264 266
207 210 206 202 202 204 203 191 181 187 189 191 200 212 218 223 226 225 228 231 232 235 241 243 244 247 251 255 257 259 263 267 267 266 266 270 277 283 287 291 294 297 298 298 296 292 292 295 296 298 298 297 293 290 288 288 289 290 290 289 289 288 288 289 288 286 284 283 281 279 277 277 277 276 275 273 271 267 261 257 257 257 258 260 263 266
202 196 197 200 200 207 214 214 211 208 204 200 199 199 202 208 218 227 232 233 231 234 237 237 241 250 255 254 254 258 263 266 268 268 268 271 275 281 286 289 290 293 295 294 290 289 292 295 296 297 297 296 293 292 291 290 290 290 289 289 288 288 289 290 290 288 287 285 282 279 276 273 272 272 273 272 271 269 264 261 259 259 259 260 262 265
205 193 188 192 197 212 220 223 226 226 222 220 220 220 222 225 230 235 237 239 240 240 238 238 247 258 262 259 258 261 262 264 268 271 274 275 277 280 283 282 283 286 288 287 287 290 293 292 290 291 292 292 293 293 292 291 290 289 289 289 289 288 288 290 291 290 289 287 284 281 277 272 268 267 268 270 270 269 267 264 262 261 261 261 262 264
217 212 209 202 204 219 224 221 220 215 215 232 238 240 242 242 241 240 241 244 246 246 247 251 257 262 262 261 263 267 269 271 274 277 279 280 282 283 282 278 276 278 281 283 285 290 292 290 289 289 290 291 292 292 292 291 290 289 289 290 291 290 290 290 291 291 290 288 286 284 280 275 269 266 266 266 267 267 267 266 264 263 263 262 262 263
217 211 212 212 211 217 211 196 187 204 231 240 245 246 247 248 248 247 249 251 252 252 255 258 260 262 262 263 267 271 275 280 282 283 284 285 285 283 281 280 279 279 282 284 285 287 288 288 289 290 290 290 291 291 291 290 290 290 290 291 292 292 292 290 289 290 290 290 288 285 282 278 273 269 267 267 267 266 266 266 265 264 264 263 263 263
218 209 205 203 204 203 181 173 184 244 245 244 247 245 244 246 245 243 248 252 254 255 257 258 261 263 265 267 269 273 278 282 284 286 287 287 285 282 281 281 281 281 282 282 282 283 284 285 287 288 288 290 290 291 291 291 290 290 290 290 291 292 292 290 288 287 288 289 287 285 282 279 275 272 270 270 270 269 269 268 267 266 265 264 263 263
221 214 206 197 202 207 190 191 217 249 257 251 249 246 244 245 245 244 249 256 260 259 258 260 262 264 267 270 273 277 282 284 284 284 284 284 285 287 287 284 282 283 283 283 282 282 282 284 285 286 287 288 290 291 291 291 292 292 292 291 290 291 292 292 290 286 285 285 284 282 280 278 276 274 272 271 272 272 272 272 271 271 270 268 266 265
215 215 213 208 212 215 208 212 217 219 250 252 249 249 251 251 251 251 251 258 263 263 263 266 268 271 274 276 277 280 281 279 279 281 281 282 284 288 289 289 288 288 289 290 290 288 285 283 283 282 283 284 287 289 290 291 292 293 293 293 292 292 293 293 291 287 282 279 278 276 276 275 275 275 274 274 274 274 274 273 273 274 276 275 274 271
209 210 211 210 214 212 208 211 193 216 243 250 252 257 259 254 252 249 248 260 265 266 268 270 272 276 278 279 282 283 275 270 273 278 279 279 281 283 285 287 287 287 288 289 290 290 288 286 284 283 282 282 283 286 288 290 291 292 293 294 293 294 294 295 294 290 283 278 274 272 272 272 272 273 275 276 277 278 278 277 276 277 278 280 280 279
207 205 201 202 208 205 205 212 219 234 243 247 253 259 257 247 242 224 225 261 267 271 276 276 276 281 282 281 281 275 264 264 270 273 274 275 277 279 281 282 283 283 284 286 286 287 288 289 290 291 291 289 288 288 288 289 290 291 292 294 295 295 296 297 297 296 292 287 284 281 279 276 275 275 277 278 279 281 282 283 282 281 281 282 284 285
202 200 196 201 206 204 208 215 227 242 245 244 251 256 248 209 215 211 236 264 272 279 281 279 281 283 280 275 269 262 257 260 263 265 268 271 273 275 277 280 282 285 287 288 289 290 291 293 295 297 298 296 292 290 290 291 292 292 291 292 294 295 296 296 295 294 294 293 291 290 289 288 286 284 284 284 283 283 285 287 287 286 285 285 286 287
195 195 198 204 206 207 214 219 238 254 253 252 255 253 235 215 232 247 262 272 276 278 279 281 282 279 274 269 263 259 258 259 259 261 264 267 270 272 275 278 282 285 286 288 289 291 293 295 296 297 296 291 285 283 284 286 289 291 292 292 292 290 290 290 288 288 289 289 290 291 291 292 292 291 291 290 289 288 288 290 291 290 290 290 289 289
197 193 199 207 209 207 207 208 230 249 251 256 255 238 230 239 256 264 268 270 273 276 280 283 280 275 270 267 266 264 263 264 264 265 266 268 271 273 276 279 283 285 284 284 285 287 290 292 293 293 289 281 276 275 276 277 278 282 285 287 286 285 284 282 282 283 284 286 288 289 290 291 291 292 292 291 291 291 291 291 291 292 293 293 293 293
210 206 207 210 208 200 194 207 229 241 249 263 255 226 233 255 267 267 263 265 274 281 281 280 278 276 273 269 268 268 269 269 270 271 273 274 275 276 278 281 285 287 285 284 284 285 286 287 289 289 285 276 269 268 269 270 270 270 272 274 275 276 277 277 278 281 282 284 285 286 288 289 290 291 291 291 291 291 290 290 290 290 291 293 294 295
222 223 223 223 223 222 225 237 250 253 254 257 250 240 255 270 273 272 271 273 278 282 282 281 280 278 276 273 271 271 273 277 279 280 282 282 283 284 285 285 288 288 286 284 284 286 288 288 289 289 286 279 274 272 272 273 274 274 273 273 272 270 269 271 275 277 278 279 281 282 285 287 289 290 290 290 289 289 289 288 288 288 288 290 291 292
236 235 233 234 237 241 246 252 256 254 250 250 251 256 264 270 273 275 276 278 282 283 282 278 274 274 275 274 274 276 279 283 285 286 287 287 287 288 287 287 287 285 283 281 281 285 290 292 291 290 287 282 278 278 278 279 279 280 281 281 279 274 270 270 272 272 273 276 279 280 282 284 287 289 289 289 289 289 289 289 289 289 289 289 290 291
237 235 233 236 237 239 245 249 251 252 252 253 256 260 264 267 270 272 275 279 280 276 272 270 271 274 275 274 275 278 281 283 285 286 286 285 284 284 284 284 282 280 278 277 277 280 285 289 290 290 288 285 282 281 282 281 279 282 286 288 288 286 283 281 280 279 279 279 280 282 283 284 286 288 289 291 292 292 293 294 294 294 294 293 293 294
239 236 235 238 237 239 247 253 255 256 256 255 255 258 261 265 268 271 274 274 270 268 268 269 272 274 275 275 276 278 281 284 286 285 282 278 277 277 276 275 274 273 273 274 277 281 284 286 286 286 286 285 284 284 285 284 281 281 284 286 287 287 286 286 286 286 284 281 280 283 286 288 290 291 292 293 294 295 296 297 298 299 300 301 301 300
244 240 239 240 239 241 247 251 252 253 256 256 256 258 262 266 270 270 268 266 267 271 273 272 272 274 274 274 276 277 279 282 283 281 279 277 276 274 273 271 271 272 272 274 277 281 284 285 284 283 282 282 281 280 281 281 279 278 278 279 280 279 278 278 278 280 283 283 284 286 290 292 295 296 296 296 296 296 297 297 298 299 300 303 305 305
242 240 240 239 239 243 248 250 251 254 258 260 262 265 266 268 269 265 263 265 269 271 270 270 271 271 271 272 274 276 278 279 278 277 276 276 276 276 275 275 275 275 275 276 277 278 280 282 283 283 283 282 281 279 279 279 279 279 279 279 278 277 277 277 276 277 281 285 288 290 292 294 296 297 298 298 298 297 296 296 296 297 298 299 301 303
242 244 244 243 244 251 257 258 256 258 261 263 264 265 265 264 262 260 263 267 269 268 268 269 270 270 271 272 273 274 275 276 275 274 273 274 276 277 278 278 278 277 277 278 278 278 278 279 280 281 282 283 282 281 280 280 279 280 281 281 280 280 280 281 280 280 281 283 287 290 292 294 295 297 298 298 299 298 298 296 295 295 295 295 296 297
Height
3115 3116 3116 3117 3117 3119 3122 3125 3128 3132 3136 3137 3138 3139 3140 3141 3140 3142 3144 3145 3145 3144 3143 3144 3144 3144 3145 3146 3147 3149 3150 3150 3150 3150 3151 3152 3153 3154 3155 3156 3157 3157 3158 3159 3160 3161 3161 3161 3160 3159 3160 3160 3160 3160 3160 3160 3160 3160 3160 3160 3160 3161 3160 3159 3159 3158 3158 3158 3158 3158 3158 3158 3159 3159 3159 3159 3159 3159 3159 3159 3158 3158 3157 3158 3158 3159
3112 3112 3112 3114 3117 3120 3122 3125 3128 3131 3133 3134 3135 3136 3137 3138 3139 3140 3143 3142 3141 3141 3141 3143 3142 3142 3143 3143 3144 3145 3146 3146 3147 3148 3148 3149 3150 3151 3152 3153 3154 3155 3155 3156 3157 3158 3159 3159 3159 3158 3157 3157 3157 3158 3158 3157 3157 3157 3157 3157 3157 3157 3158 3157 3157 3156 3156 3155 3155 3155 3155 3155 3155 3155 3155 3155 3156 3156 3156 3156 3156 3156 3155 3155 3156 3157
3108 3107 3109 3113 3117 3120 3121 3123 3126 3128 3130 3132 3133 3134 3136 3137 3138 3139 3139 3139 3139 3138 3139 3141 3139 3139 3140 3140 3140 3141 3142 3142 3144 3145 3146 3147 3148 3149 3149 3150 3151 3152 3152 3153 3154 3155 3156 3156 3157 3156 3155 3155 3155 3154 3154 3154 3154 3154 3154 3154 3154 3154 3155 3155 3154 3154 3153 3153 3153 3152 3152 3152 3151 3151 3152 3152 3152 3152 3153 3153 3153 3154 3154 3153 3153 3154
3102 3104 3107 3111 3113 3116 3119 3121 3124 3126 3128 3129 3130 3132 3134 3135 3137 3137 3136 3136 3137 3137 3138 3138 3136 3134 3136 3136 3136 3138 3139 3139 3140 3141 3143 3144 3145 3146 3148 3148 3149 3149 3149 3150 3151 3152 3153 3153 3153 3153 3153 3153 3152 3152 3151 3151 3151 3151 3151 3151 3151 3151 3152 3152 3151 3151 3151 3151 3150 3149 3149 3149 3148 3148 3148 3148 3149 3150 3151 3151 3151 3151 3151 3151 3151 3151
3098 3102 3106 3109 3110 3113 3116 3118 3121 3123 3125 3126 3128 3129 3131 3134 3134 3134 3134 3135 3135 3134 3135 3136 3133 3129 3131 3133 3132 3134 3136 3136 3137 3138 3139 3141 3142 3143 3144 3145 3146 3147 3147 3148 3148 3149 3149 3149 3149 3149 3150 3149 3149 3149 3149 3148 3147 3147 3148 3148 3148 3148 3149 3149 3149 3149 3148 3148 3147 3147 3147 3146 3146 3146 3145 3145 3146 3148 3148 3148 3148 3148 3148 3148 3147 3147
3096 3101 3104 3107 3108 3110 3113 3115 3118 3120 3122 3124 3126 3127 3130 3131 3131 3132 3134 3134 3133 3132 3133 3135 3132 3124 3125 3129 3129 3131 3133 3132 3133 3134 3134 3136 3138 3139 3140 3142 3143 3144 3145 3145 3145 3146 3146 3146 3146 3145 3145 3145 3146 3146 3146 3145 3144 3144 3144 3144 3145 3145 3146 3146 3146 3146 3145 3145 3144 3144 3144 3144 3143 3143 3142 3143 3144 3145 3145 3145 3145 3145 3144 3144 3144 3144
3093 3098 3101 3104 3106 3107 3109 3112 3115 3118 3120 3122 3123 3125 3128 3129 3130 3131 3133 3133 3131 3130 3131 3133 3131 3123 3121 3125 3127 3129 3130 3129 3131 3131 3131 3132 3133 3134 3136 3138 3140 3141 3142 3142 3142 3142 3142 3142 3143 3142 3142 3141 3141 3142 3142 3141 3141 3140 3140 3140 3141 3142 3142 3142 3142 3142 3142 3142 3142 3141 3141 3141 3140 3140 3140 3141 3141 3142 3142 3142 3141 3141 3141 3141 3141 3141
3088 3094 3096 3099 3104 3105 3105 3108 3112 3116 3118 3119 3120 3122 3125 3126 3127 3128 3129 3130 3128 3128 3129 3130 3131 3125 3116 3117 3123 3127 3127 3127 3128 3130 3130 3131 3130 3131 3133 3134 3136 3138 3138 3138 3137 3137 3138 3139 3139 3139 3138 3138 3137 3137 3137 3138 3138 3137 3137 3137 3138 3138 3138 3139 3139 3139 3139 3139 3138 3138 3138 3138 3138 3137 3138 3138 3138 3139 3139 3138 3138 3138 3138 3138 3138 3138
3084 3088 3090 3095 3100 3102 3104 3107 3109 3113 3115 3116 3117 3118 3121 3123 3124 3125 3126 3127 3126 3126 3126 3127 3132 3127 3112 3111 3119 3122 3122 3122 3123 3126 3128 3128 3129 3128 3130 3132 3133 3135 3134 3134 3133 3132 3133 3135 3135 3134 3134 3134 3133 3133 3133 3134 3134 3134 3134 3134 3134 3135 3135 3135 3135 3135 3135 3135 3135 3135 3134 3135 3135 3135 3134 3134 3135 3135 3135 3135 3135 3134 3134 3134 3135 3135
3080 3083 3089 3092 3095 3098 3103 3106 3107 3110 3112 3113 3115 3116 3119 3121 3122 3124 3124 3125 3126 3124 3122 3124 3130 3127 3110 3107 3117 3118 3117 3118 3119 3122 3123 3124 3126 3126 3128 3130 3131 3132 3131 3130 3130 3129 3130 3130 3130 3130 3129 3129 3129 3129 3129 3130 3130 3130 3130 3131 3131 3131 3131 3131 3131 3131 3131 3131 3131 3131 3131 3131 3131 3131 3131 3130 3130 3130 3130 3131 3131 3131 3131 3131 3131 3132
3078 3082 3087 3088 3090 3095 3101 3103 3105 3108 3110 3112 3114 3116 3118 3120 3121 3123 3122 3124 3126 3121 3118 3120 3126 3129 3114 3105 3113 3116 3114 3117 3117 3118 3120 3121 3123 3124 3126 3128 3129 3130 3129 3128 3127 3127 3127 3126 3126 3126 3125 3125 3125 3125 3126 3126 3126 3127 3127 3128 3127 3127 3127 3127 3127 3126 3127 3127 3127 3128 3128 3128 3128 3127 3126 3125 3125 3126 3126 3126 3127 3127 3127 3127 3128 3128
3077 3079 3081 3083 3087 3092 3097 3099 3101 3104 3107 3110 3113 3115 3118 3120 3120 3121 3121 3123 3124 3116 3115 3118 3122 3128 3118 3105 3110 3114 3113 3116 3117 3117 3118 3119 3120 3122 3125 3126 3126 3127 3126 3125 3125 3125 3124 3123 3123 3123 3123 3122 3121 3121 3122 3122 3123 3123 3124 3124 3124 3124 3123 3122 3122 3122 3123 3123 3123 3124 3124 3123 3123 3122 3121 3121 3121 3121 3121 3122 3123 3122 3122 3123 3124 3124
3074 3075 3077 3081 3084 3087 3091 3095 3098 3101 3103 3106 3109 3113 3118 3120 3120 3119 3118 3118 3118 3114 3114 3117 3119 3121 3115 3107 3109 3112 3112 3115 3115 3116 3117 3118 3118 3120 3122 3122 3122 3122 3123 3123 3123 3121 3121 3121 3120 3121 3120 3119 3118 3118 3119 3119 3120 3120 3120 3120 3119 3119 3119 3118 3118 3118 3119 3119 3119 3120 3119 3119 3119 3118 3118 3117 3117 3117 3117 3117 3118 3117 3117 3118 3119 3120
3072 3074 3075 3077 3079 3082 3085 3088 3092 3094 3096 3099 3102 3106 3112 3117 3119 3118 3116 3115 3115 3114 3114 3116 3117 3115 3111 3109 3108 3108 3109 3110 3112 3114 3115 3115 3116 3117 3118 3119 3119 3120 3120 3121 3120 3119 3119 3118 3118 3118 3117 3117 3116 3115 3115 3116 3116 3116 3116 3115 3115 3115 3114 3114 3115 3114 3114 3115 3115 3115 3115 3115 3114 3114 3114 3113 3113 3113 3113 3113 3113 3113 3113 3113 3114 3114
3067 3069 3068 3070 3074 3077 3079 3083 3086 3088 3091 3094 3097 3101 3104 3108 3112 3114 3114 3114 3114 3113 3112 3114 3115 3110 3107 3107 3105 3105 3106 3107 3108 3111 3112 3113 3113 3114 3115 3116 3118 3118 3119 3118 3118 3117 3117 3116 3116 3116 3115 3114 3113 3113 3112 3112 3112 3112 3112 3112 3111 3112 3111 3111 3111 3111 3110 3110 3110 3110 3110 3110 3110 3109 3109 3109 3109 3109 3109 3109 3108 3107 3108 3108 3108 3109
3064 3063 3063 3067 3070 3072 3075 3080 3084 3087 3090 3092 3096 3100 3100 3101 3106 3110 3111 3112 3113 3113 3111 3111 3109 3106 3105 3103 3103 3105 3105 3105 3106 3108 3110 3112 3112 3112 3112 3113 3115 3116 3116 3116 3115 3114 3114 3113 3114 3113 3112 3111 3111 3110 3109 3108 3108 3108 3109 3109 3109 3108 3108 3108 3108 3107 3107 3106 3106 3106 3106 3105 3105 3105 3105 3105 3105 3105 3105 3104 3103 3103 3103 3103 3103 3104
3060 3061 3062 3065 3068 3069 3073 3076 3080 3083 3087 3089 3091 3093 3095 3098 3103 3107 3109 3109 3113 3113 3109 3106 3104 3104 3105 3103 3102 3104 3103 3104 3105 3105 3108 3110 3110 3109 3109 3110 3112 3113 3113 3113 3112 3111 3111 3111 3111 3110 3110 3109 3108 3107 3106 3105 3105 3104 3105 3105 3105 3104 3104 3104 3103 3103 3103 3102 3102 3102 3102 3102 3101 3101 3101 3101 3101 3100 3100 3099 3098 3099 3098 3098 3098 3098
3055 3059 3060 3062 3065 3067 3071 3076 3079 3081 3082 3084 3086 3089 3094 3099 3101 3104 3106 3107 3110 3110 3104 3100 3099 3101 3104 3102 3101 3101 3102 3102 3103 3103 3105 3106 3106 3106 3106 3108 3109 3110 3110 3110 3109 3109 3109 3109 3108 3108 3107 3106 3105 3104 3103 3102 3102 3101 3101 3101 3101 3100 3100 3100 3099 3099 3099 3098 3098 3098 3098 3098 3097 3097 3097 3097 3096 3096 3095 3094 3095 3095 3094 3094 3094 3093
3052 3057 3059 3060 3063 3065 3070 3074 3076 3077 3079 3080 3083 3087 3092 3095 3096 3098 3101 3101 3103 3104 3099 3095 3094 3096 3097 3096 3096 3099 3101 3103 3103 3103 3104 3104 3105 3105 3105 3106 3106 3107 3108 3107 3107 3107 3106 3106 3105 3105 3105 3104 3103 3102 3101 3100 3099 3099 3098 3098 3097 3097 3097 3096 3096 3096 3095 3095 3094 3094 3094 3094 3093 3093 3093 3092 3092 3091 3090 3090 3090 3090 3090 3090 3089 3089
3049 3053 3056 3058 3061 3063 3065 3067 3068 3070 3074 3078 3081 3084 3086 3089 3090 3090 3092 3093 3095 3096 3094 3092 3090 3089 3088 3089 3093 3096 3099 3101 3103 3103 3104 3104 3104 3104 3103 3103 3103 3104 3104 3104 3104 3104 3104 3103 3103 3102 3102 3102 3101 3100 3099 3098 3097 3096 3096 3095 3095 3094 3094 3093 3093 3092 3092 3092 3092 3091 3091 3090 3090 3089 3089 3089 3088 3087 3087 3086 3086 3086 3086 3085 3085 3085
3046 3049 3053 3056 3059 3060 3059 3058 3059 3061 3065 3070 3075 3078 3081 3084 3085 3086 3087 3088 3090 3090 3090 3089 3086 3083 3083 3087 3090 3093 3096 3098 3100 3101 3101 3102 3103 3102 3101 3101 3101 3101 3102 3102 3102 3101 3101 3100 3100 3100 3100 3099 3099 3098 3097 3096 3095 3094 3094 3093 3092 3091 3091 3090 3090 3089 3089 3089 3088 3088 3088 3087 3086 3086 3085 3085 3084 3084 3084 3083 3083 3082 3081 3081 3081 3081
3042 3045 3049 3052 3053 3053 3053 3054 3057 3060 3062 3066 3068 3070 3073 3075 3079 3082 3083 3083 3085 3085 3084 3086 3083 3079 3082 3086 3088 3090 3093 3096 3098 3098 3099 3100 3100 3099 3099 3098 3099 3099 3098 3098 3098 3098 3097 3097 3097 3097 3097 3097 3096 3095 3095 3094 3093 3092 3091 3090 3090 3089 3088 3088 3087 3086 3086 3085 3084 3084 3083 3083 3082 3082 3081 3081 3080 3080 3080 3079 3079 3078 3077 3076 3076 3076
3040 3043 3046 3048 3049 3050 3053 3055 3058 3060 3063 3066 3067 3068 3070 3072 3073 3075 3077 3078 3080 3081 3082 3084 3082 3076 3079 3085 3086 3087 3089 3092 3095 3095 3095 3096 3096 3096 3096 3095 3095 3095 3094 3094 3094 3094 3093 3093 3093 3093 3093 3093 3093 3092 3092 3091 3090 3089 3088 3088 3087 3086 3085 3085 3084 3083 3082 3081 3081 3080 3079 3079 3078 3078 3077 3076 3076 3075 3075 3074 3074 3073 3072 3072 3072 3072
3038 3040 3043 3046 3048 3050 3052 3054 3056 3059 3062 3064 3064 3066 3067 3068 3070 3072 3074 3076 3078 3079 3081 3083 3081 3074 3076 3082 3083 3083 3084 3087 3090 3091 3091 3091 3092 3093 3093 3092 3091 3090 3090 3090 3090 3089 3089 3089 3089 3089 3089 3089 3088 3088 3088 3088 3087 3086 3085 3084 3083 3082 3082 3081 3080 3080 3079 3078 3077 3076 3075 3075 3074 3073 3072 3072 3071 3070 3070 3069 3069 3068 3068 3068 3067 3067
3032 3034 3038 3043 3046 3048 3051 3053 3055 3057 3058 3057 3058 3060 3063 3066 3069 3072 3074 3076 3076 3077 3078 3079 3077 3073 3074 3079 3080 3078 3079 3081 3084 3086 3086 3087 3089 3089 3088 3087 3087 3086 3086 3085 3085 3085 3085 3085 3085 3085 3085 3085 3084 3084 3084 3084 3083 3082 3082 3081 3080 3079 3078 3077 3076 3076 3075 3074 3073 3073 3072 3071 3070 3070 3069 3068 3066 3065 3065 3064 3064 3064 3063 3063 3063 3062
3027 3029 3031 3034 3036 3037 3039 3041 3043 3045 3049 3051 3054 3058 3061 3064 3066 3068 3070 3072 3073 3073 3074 3073 3072 3071 3072 3075 3076 3076 3077 3078 3079 3081 3081 3083 3084 3085 3085 3083 3082 3081 3081 3080 3080 3081 3081 3081 3081 3081 3080 3080 3079 3079 3079 3079 3078 3078 3078 3077 3076 3075 3074 3074 3073 3072 3071 3070 3069 3069 3068 3068 3067 3066 3066 3064 3063 3062 3060 3059 3059 3059 3058 3058 3058 3057
3026 3027 3028 3028 3029 3030 3030 3032 3035 3038 3043 3048 3051 3054 3057 3059 3061 3064 3066 3067 3067 3068 3069 3069 3070 3070 3070 3070 3071 3073 3075 3077 3077 3077 3078 3078 3079 3080 3081 3080 3079 3078 3077 3076 3077 3077 3077 3077 3077 3076 3075 3075 3074 3074 3073 3073 3073 3073 3073 3073 3072 3071 3070 3070 3069 3068 3067 3066 3065 3064 3064 3063 3063 3063 3062 3061 3060 3058 3057 3056 3055 3054 3054 3053 3053 3053
3022 3024 3026 3028 3029 3031 3033 3034 3036 3038 3041 3044 3046 3049 3052 3055 3058 3060 3060 3060 3063 3066 3065 3066 3068 3069 3067 3066 3067 3069 3072 3074 3074 3074 3074 3074 3074 3075 3075 3076 3076 3076 3074 3073 3073 3073 3073 3072 3072 3071 3070 3070 3070 3069 3068 3068 3068 3068 3068 3068 3067 3066 3065 3064 3064 3063 3063 3062 3061 3060 3059 3058 3058 3058 3058 3057 3056 3055 3054 3053 3052 3051 3050 3049 3049 3049
3018 3020 3023 3026 3029 3031 3033 3034 3035 3037 3039 3042 3044 3046 3049 3052 3054 3055 3055 3057 3060 3061 3060 3062 3065 3065 3063 3063 3064 3066 3068 3069 3069 3069 3069 3070 3070 3070 3070 3070 3070 3071 3070 3070 3069 3068 3067 3066 3066 3065 3065 3065 3065 3064 3064 3063 3063 3063 3062 3061 3061 3061 3060 3059 3058 3058 3058 3057 3056 3055 3054 3053 3053 3053 3053 3052 3052 3051 3050 3049 3048 3047 3047 3046 3045 3045
3016 3018 3021 3024 3027 3030 3030 3031 3033 3035 3037 3039 3042 3044 3047 3049 3050 3052 3053 3055 3056 3056 3056 3059 3060 3058 3059 3061 3061 3062 3064 3064 3065 3065 3065 3065 3065 3064 3065 3065 3065 3065 3065 3065 3064 3063 3062 3060 3059 3059 3060 3060 3059 3059 3059 3058 3057 3057 3056 3056 3055 3054 3054 3054 3053 3053 3053 3052 3052 3051 3050 3049 3048 3048 3048 3047 3047 3047 3046 3045 3044 3043 3043 3042 3041 3041
3012 3015 3018 3020 3023 3025 3027 3029 3031 3032 3034 3037 3039 3042 3044 3046 3048 3050 3050 3051 3051 3051 3052 3054 3055 3053 3056 3058 3058 3059 3060 3060 3060 3060 3060 3060 3060 3060 3060 3060 3060 3060 3060 3059 3058 3057 3056 3055 3054 3054 3054 3054 3054 3053 3053 3053 3053 3052 3051 3050 3049 3048 3048 3048 3048 3047 3047 3046 3046 3046 3045 3044 3043 3043 3042 3042 3042 3042 3041 3041 3040 3039 3039 3038 3037 3036
3010 3013 3016 3018 3020 3022 3024 3027 3028 3030 3033 3035 3036 3039 3041 3042 3043 3044 3044 3044 3045 3045 3047 3050 3049 3048 3050 3053 3055 3055 3055 3055 3054 3054 3056 3057 3057 3057 3056 3056 3057 3056 3054 3053 3053 3052 3052 3051 3050 3049 3048 3047 3047 3048 3048 3047 3047 3046 3045 3045 3044 3043 3042 3041 3041 3041 3041 3040 3040 3039 3039 3039 3038 3037 3037 3036 3036 3036 3036 3035 3035 3035 3035 3034 3033 3032
3009 3012 3015 3016 3017 3019 3022 3024 3026 3029 3031 3030 3032 3035 3036 3036 3037 3037 3038 3039 3040 3041 3042 3041 3041 3042 3046 3049 3051 3051 3051 3050 3050 3051 3052 3053 3053 3053 3053 3053 3052 3051 3050 3049 3049 3048 3047 3046 3046 3045 3043 3042 3042 3042 3042 3041 3040 3040 3039 3039 3039 3038 3036 3035 3034 3034 3033 3033 3033 3033 3033 3032 3032 3032 3031 3031 3030 3030 3029 3029 3030 3030 3030 3029 3028 3027
3007 3010 3012 3013 3014 3016 3019 3021 3025 3027 3024 3023 3027 3030 3029 3030 3031 3031 3032 3034 3035 3036 3036 3036 3037 3041 3044 3045 3046 3045 3045 3046 3047 3048 3048 3049 3049 3049 3048 3047 3046 3045 3046 3046 3045 3043 3042 3041 3041 3039 3039 3038 3037 3037 3036 3035 3035 3035 3034 3033 3033 3032 3031 3030 3029 3027 3026 3026 3026 3025 3025 3025 3025 3025 3025 3025 3024 3023 3023 3023 3023 3023 3023 3023 3022 3022
3004 3007 3010 3010 3012 3014 3016 3019 3022 3020 3017 3019 3024 3025 3025 3025 3026 3027 3028 3029 3031 3033 3034 3035 3036 3038 3040 3040 3040 3040 3040 3041 3042 3043 3043 3043 3043 3043 3042 3042 3042 3041 3042 3041 3040 3039 3037 3036 3035 3034 3033 3033 3032 3031 3030 3030 3029 3029 3028 3027 3026 3026 3026 3025 3024 3022 3021 3020 3020 3019 3018 3017 3017 3018 3018 3018 3018 3017 3017 3017 3016 3016 3016 3015 3015 3015
3003 3005 3007 3008 3010 3012 3014 3015 3017 3015 3013 3017 3019 3019 3019 3020 3021 3023 3024 3024 3027 3030 3031 3032 3032 3033 3034 3035 3036 3036 3037 3037 3037 3037 3038 3036 3035 3036 3037 3037 3036 3035 3035 3036 3035 3034 3033 3032 3030 3029 3028 3027 3026 3026 3025 3024 3023 3023 3022 3022 3021 3020 3020 3020 3019 3017 3016 3015 3014 3012 3011 3010 3010 3010 3010 3010 3010 3010 3010 3010 3009 3009 3008 3008 3008 3008
3001 3002 3004 3006 3007 3009 3011 3011 3013 3014 3013 3011 3010 3010 3012 3014 3017 3019 3019 3020 3023 3026 3026 3026 3027 3029 3030 3032 3032 3034 3035 3034 3032 3033 3033 3029 3027 3028 3029 3029 3029 3028 3028 3029 3029 3029 3029 3028 3026 3025 3023 3022 3021 3020 3019 3019 3017 3016 3016 3015 3015 3015 3014 3013 3013 3012 3011 3010 3008 3007 3005 3004 3003 3003 3003 3002 3002 3002 3002 3002 3002 3002 3001 3001 3001 3001
2998 2999 3002 3004 3004 3006 3009 3010 3012 3014 3007 3000 3001 3005 3008 3012 3016 3018 3017 3017 3019 3021 3021 3022 3023 3025 3027 3028 3029 3031 3031 3029 3027 3028 3027 3024 3024 3023 3021 3021 3022 3022 3021 3022 3022 3023 3023 3023 3022 3021 3019 3018 3016 3015 3015 3014 3012 3011 3010 3009 3008 3008 3008 3007 3007 3006 3005 3004 3003 3002 3000 2999 2998 2997 2996 2996 2995 2995 2995 2995 2995 2994 2994 2994 2994 2994
2995 2997 2999 3001 3002 3003 3005 3006 3008 3006 2999 2994 2998 3002 3005 3009 3013 3016 3016 3013 3013 3015 3017 3018 3020 3021 3022 3024 3025 3026 3025 3022 3021 3023 3022 3020 3020 3019 3017 3016 3016 3016 3017 3017 3016 3016 3016 3016 3017 3016 3015 3015 3013 3012 3010 3009 3007 3006 3005 3003 3003 3002 3002 3001 3000 3000 2999 2999 2998 2997 2995 2994 2993 2992 2990 2990 2989 2988 2988 2988 2988 2987 2987 2987 2987 2987
2992 2994 2996 2997 2998 2999 3001 3002 3002 2999 2994 2994 2997 3000 3002 3006 3010 3014 3013 3009 3008 3011 3013 3014 3015 3017 3017 3019 3019 3019 3019 3018 3017 3018 3017 3016 3016 3014 3013 3012 3011 3011 3011 3011 3010 3010 3009 3009 3010 3010 3009 3010 3009 3008 3006 3005 3003 3001 3000 2999 2998 2997 2996 2996 2995 2994 2994 2993 2993 2992 2990 2989 2988 2987 2986 2985 2984 2983 2982 2982 2981 2981 2980 2980 2980 2979
2989 2990 2992 2993 2995 2997 2998 2999 2998 2993 2989 2991 2996 2998 3001 3004 3007 3008 3006 3004 3006 3008 3008 3009 3011 3012 3012 3013 3014 3014 3014 3014 3013 3013 3012 3012 3012 3010 3009 3008 3006 3005 3005 3004 3004 3004 3003 3003 3003 3002 3002 3002 3002 3002 3001 3000 2999 2997 2996 2995 2994 2993 2992 2991 2990 2989 2989 2988 2988 2987 2986 2985 2984 2983 2982 2980 2979 2979 2978 2976 2975 2975 2974 2974 2973 2973
2983 2986 2988 2989 2991 2993 2994 2996 2997 2990 2984 2987 2993 2996 2998 3001 3002 2999 2999 3002 3004 3004 3004 3005 3006 3007 3008 3008 3008 3009 3008 3008 3008 3008 3008 3008 3008 3007 3006 3005 3003 3001 2999 2999 2999 2998 2998 2998 2998 2997 2997 2996 2995 2995 2995 2995 2994 2993 2992 2991 2989 2988 2988 2986 2985 2985 2984 2983 2983 2982 2982 2981 2980 2979 2977 2976 2975 2974 2973 2972 2970 2969 2968 2968 2967 2967
2978 2982 2983 2984 2986 2989 2993 2996 2995 2985 2978 2983 2989 2991 2993 2995 2995 2995 2997 2999 3000 2999 3001 3002 3001 3002 3003 3002 3003 3003 3003 3004 3004 3004 3005 3005 3005 3004 3003 3001 3000 2998 2995 2995 2995 2994 2994 2994 2994 2993 2993 2991 2990 2990 2989 2989 2988 2988 2987 2986 2984 2984 2983 2982 2981 2980 2979 2978 2978 2977 2976 2976 2975 2974 2972 2971 2970 2969 2968 2967 2966 2965 2964 2962 2961 2961
2976 2976 2976 2977 2980 2985 2987 2987 2982 2977 2978 2984 2985 2986 2988 2991 2992 2994 2995 2996 2996 2996 2997 2997 2997 2997 2997 2997 2997 2997 2998 2999 2999 2999 3000 3000 3000 3000 2999 2997 2996 2994 2992 2991 2990 2991 2991 2990 2990 2990 2989 2987 2986 2985 2984 2983 2982 2982 2981 2980 2979 2979 2978 2977 2976 2975 2975 2974 2973 2972 2971 2970 2970 2969 2967 2966 2965 2964 2964 2962 2961 2960 2959 2957 2956 2955
2971 2972 2974 2975 2978 2979 2979 2978 2977 2978 2981 2983 2981 2982 2986 2988 2989 2991 2992 2992 2993 2992 2992 2992 2992 2992 2992 2992 2992 2992 2992 2993 2993 2994 2995 2995 2995 2995 2994 2993 2992 2990 2988 2987 2986 2986 2986 2986 2986 2985 2985 2984 2982 2980 2980 2979 2977 2976 2975 2974 2974 2974 2973 2972 2972 2971 2970 2969 2968 2967 2967 2966 2965 2964 2963 2962 2961 2960 2958 2957 2956 2955 2953 2952 2951 2950
2969 2971 2974 2974 2975 2976 2974 2974 2976 2978 2979 2979 2980 2981 2984 2985 2985 2986 2987 2988 2989 2988 2988 2988 2987 2987 2987 2987 2987 2987 2988 2988 2989 2989 2989 2990 2990 2990 2990 2989 2987 2986 2984 2983 2982 2982 2981 2981 2981 2980 2980 2979 2978 2976 2976 2974 2973 2971 2970 2969 2969 2968 2968 2967 2967 2967 2966 2965 2964 2963 2962 2962 2961 2960 2959 2958 2956 2955 2953 2952 2950 2949 2948 2946 2945 2944
2966 2969 2970 2970 2971 2972 2969 2969 2972 2975 2976 2978 2979 2979 2980 2982 2982 2983 2983 2983 2984 2983 2983 2983 2982 2983 2983 2983 2983 2984 2984 2984 2984 2984 2985 2985 2986 2985 2985 2984 2983 2982 2980 2979 2979 2978 2977 2977 2976 2976 2975 2975 2974 2973 2972 2971 2969 2968 2966 2965 2964 2964 2963 2963 2962 2962 2962 2961 2960 2959 2958 2957 2957 2956 2954 2953 2952 2950 2949 2947 2946 2944 2943 2941 2939 2938
2963 2966 2966 2966 2967 2967 2965 2966 2969 2971 2973 2974 2975 2975 2976 2977 2978 2979 2979 2979 2979 2979 2979 2979 2979 2979 2979 2979 2979 2979 2980 2980 2979 2979 2980 2980 2981 2981 2980 2979 2978 2977 2976 2976 2975 2974 2973 2972 2972 2971 2971 2971 2971 2970 2969 2968 2966 2965 2963 2962 2961 2960 2959 2959 2958 2958 2957 2957 2956 2955 2954 2953 2952 2951 2950 2949 2948 2947 2945 2944 2942 2941 2939 2937 2935 2933
2960 2961 2961 2962 2963 2964 2963 2964 2966 2967 2968 2969 2970 2971 2972 2973 2974 2975 2975 2975 2975 2975 2975 2975 2975 2975 2975 2974 2975 2975 2975 2975 2975 2974 2975 2975 2976 2976 2975 2975 2974 2973 2972 2971 2970 2969 2968 2968 2967 2967 2967 2967 2966 2966 2965 2964 2963 2961 2960 2958 2957 2956 2955 2954 2954 2953 2952 2952 2951 2950 2950 2949 2948 2946 2945 2944 2943 2943 2942 2940 2938 2937 2935 2934 2931 2929
2955 2955 2957 2960 2960 2959 2958 2961 2963 2964 2964 2965 2966 2967 2968 2969 2970 2971 2971 2971 2972 2972 2971 2971 2970 2970 2970 2970 2970 2970 2970 2970 2970 2970 2970 2970 2971 2971 2970 2970 2969 2968 2967 2966 2966 2965 2964 2963 2962 2962 2962 2962 2961 2961 2960 2959 2958 2957 2956 2954 2953 2951 2950 2950 2949 2948 2947 2946 2945 2944 2944 2943 2942 2941 2940 2939 2938 2937 2937 2936 2935 2933 2932 2930 2928 2927
2950 2951 2954 2956 2956 2955 2956 2959 2961 2961 2961 2961 2962 2963 2964 2965 2966 2966 2966 2967 2967 2967 2967 2967 2966 2966 2966 2965 2965 2964 2964 2964 2965 2965 2965 2966 2965 2965 2964 2964 2963 2963 2962 2961 2960 2959 2959 2958 2957 2956 2955 2955 2955 2955 2954 2954 2953 2952 2950 2949 2948 2946 2945 2944 2943 2943 2942 2941 2940 2938 2937 2936 2935 2935 2934 2933 2932 2930 2930 2930 2930 2930 2928 2926 2924 2923